Weather History for KGPI - November, 2012

Change the Weather History Date:

Thursday, November 1, 2012

  Actual Average Record
Temperature  
Mean Temperature 45 °F 37 °F  
Max Temperature 50 °F 47 °F 61 °F (1981)
Min Temperature 39 °F 27 °F -3 °F (1935)
Degree Days  
Heating Degree Days 20 28  
Month to date heating degree days 20 28  
Since 1 July heating degree days 1103 1236  
Cooling Degree Days 0 0  
Month to date cooling degree days 0 0  
Year to date cooling degree days 192 147  
Moisture  
Dew Point 42 °F    
Average Humidity 90    
Maximum Humidity 100    
Minimum Humidity 80    
Precipitation  
Precipitation 0.02 in 0.04 in 0.27 in (1924)
Month to date precipitation 0.02 0.04  
Year to date precipitation 17.63 14.04  
Snow  
Snow 0.00 in - - ()
Month to date snowfall 0.0  
Year to date snowfall 27.1  
Since 1 July snowfall 2.0  
Snow Depth 0.00 in    
Sea Level Pressure  
Sea Level Pressure 29.86 in    
Wind  
Wind Speed 4 mph (SSW)    
Max Wind Speed 17 mph    
Max Gust Speed 23 mph    
Visibility 6 miles    
Events Fog , Rain    
T = Trace of Precipitation, MM = Missing Value Source: NWS Daily Summary

Daily Weather History Graph

Daily Weather History Graph

Search for Another Location

Airport or City:

Trip Planner

Search our weather history database for the weather conditions in past years. The results will help you decide how hot, cold, wet, or windy it might be!

Date:

Astronomy

Nov. 01, 2012 Rise Set
Actual Time 8:23 AM MDT 6:16 PM MDT
Civil Twilight 7:50 AM MDT 6:49 PM MDT
Nautical Twilight 7:13 AM MDT 7:26 PM MDT
Astronomical Twilight 6:37 AM MDT 8:02 PM MDT
Moon 8:06 PM MDT (11/1) 11:09 AM MDT (11/1)
Length of Visible Light 10h 58m
Length of Day
9h 53m
Waning Gibbous, 92% of the Moon is Illuminated
Nov 1
Waning Gibbous
Nov 6
Last Quarter
Nov 13
New
Nov 20
First Quarter
Nov 28
Full

Hourly Weather History & Observations

Time (MDT) Temp. Windchill Dew Point Humidity Pressure Visibility Wind Dir Wind Speed Gust Speed Precip Events Conditions
12:02 AM 39.2 °F - 39.2 °F 100% 29.78 in 0.2 mi Calm Calm - N/A Fog Fog
12:35 AM 39.2 °F - 37.4 °F 93% 29.78 in 0.5 mi Calm Calm - N/A Fog Fog
12:47 AM 39.2 °F - 39.2 °F 100% 29.79 in 0.8 mi Calm Calm - N/A   Mist
12:55 AM 39.0 °F - 39.0 °F 100% 29.81 in 1.2 mi Calm Calm - N/A   Overcast
1:18 AM 39.2 °F 37.0 °F 39.2 °F 100% 29.78 in 2.0 mi NE 3.5 mph - N/A   Mostly Cloudy
1:29 AM 39.2 °F - 39.2 °F 100% 29.78 in 4.0 mi Calm Calm - N/A   Mostly Cloudy
1:55 AM 39.9 °F - 39.9 °F 100% 29.81 in 5.0 mi Calm Calm - N/A   Overcast
2:18 AM 39.2 °F - 39.2 °F 100% 29.79 in 2.0 mi Calm Calm - N/A   Mostly Cloudy
2:23 AM 39.2 °F 37.0 °F 39.2 °F 100% 29.80 in 3.0 mi SSW 3.5 mph - N/A   Mostly Cloudy
2:55 AM 39.9 °F - 39.9 °F 100% 29.83 in 6.0 mi Calm Calm - N/A   Mostly Cloudy
3:55 AM 41.0 °F - 41.0 °F 100% 29.85 in 9.0 mi Calm Calm - 0.00 in Rain Light Rain
4:03 AM 42.8 °F - 41.0 °F 93% 29.84 in 9.0 mi Calm Calm - 0.00 in Rain Light Rain
4:13 AM 42.8 °F 39.3 °F 42.8 °F 100% 29.84 in 8.0 mi South 5.8 mph - 0.01 in Rain Light Rain
4:55 AM 42.1 °F 39.2 °F 42.1 °F 100% 29.85 in 7.0 mi NW 4.6 mph - 0.01 in Rain Light Rain
5:25 AM 42.8 °F 41.1 °F 42.8 °F 100% 29.83 in 10.0 mi NW 3.5 mph - 0.00 in   Overcast
5:55 AM 42.1 °F 39.2 °F 42.1 °F 100% 29.86 in 10.0 mi East 4.6 mph - 0.00 in   Overcast
6:02 AM 42.8 °F - 42.8 °F 100% 29.83 in 10.0 mi Calm Calm - N/A   Overcast
6:32 AM 42.8 °F - 42.8 °F 100% 29.83 in 10.0 mi Calm Calm - N/A   Overcast
6:55 AM 42.1 °F - 42.1 °F 100% 29.87 in 9.0 mi Calm Calm - N/A   Overcast
7:26 AM 42.8 °F - 41.0 °F 93% 29.83 in 10.0 mi Calm Calm - N/A   Overcast
7:55 AM 42.1 °F - 42.1 °F 100% 29.87 in 4.0 mi Calm Calm - N/A   Overcast
8:55 AM 43.0 °F 41.3 °F 42.1 °F 97% 29.87 in 2.0 mi WNW 3.5 mph - N/A   Overcast
9:25 AM 42.8 °F 38.6 °F 42.8 °F 100% 29.85 in 1.0 mi SW 6.9 mph - N/A   Overcast
9:28 AM 42.8 °F 39.3 °F 42.8 °F 100% 29.84 in 0.5 mi SSW 5.8 mph - N/A Fog Fog
9:31 AM 42.8 °F 41.1 °F 42.8 °F 100% 29.84 in 0.2 mi South 3.5 mph - 0.00 in Fog , Rain Light Rain
9:55 AM 43.0 °F - 43.0 °F 100% 29.88 in 0.2 mi Calm Calm - 0.00 in Fog Fog
10:55 AM 45.0 °F - 45.0 °F 100% 29.88 in 0.2 mi Calm Calm - N/A Fog Fog
11:12 AM 44.6 °F - 44.6 °F 100% 29.84 in 0.5 mi Calm Calm - N/A Fog Fog
11:47 AM 46.4 °F - 44.6 °F 93% 29.84 in 1.0 mi Calm Calm - N/A   Overcast
11:55 AM 46.0 °F - 45.0 °F 96% 29.87 in 3.0 mi Calm Calm - N/A   Overcast
12:29 PM 46.4 °F 44.3 °F 46.4 °F 100% 29.82 in 10.0 mi SSE 4.6 mph - N/A   Mostly Cloudy
12:55 PM 50.0 °F - 46.0 °F 86% 29.86 in 10.0 mi Calm Calm - N/A   Partly Cloudy
1:55 PM 48.9 °F - 43.0 °F 80% 29.86 in 10.0 mi SW 12.7 mph 23.0 mph 0.00 in Rain Light Rain
2:55 PM 48.0 °F - 42.1 °F 80% 29.86 in 10.0 mi South 12.7 mph - 0.01 in   Mostly Cloudy
3:55 PM 48.9 °F - 44.1 °F 83% 29.88 in 10.0 mi South 10.4 mph - N/A   Overcast
4:55 PM 48.0 °F - 43.0 °F 83% 29.89 in 10.0 mi South 8.1 mph - N/A   Mostly Cloudy
5:55 PM 48.0 °F - 43.0 °F 83% 29.91 in 10.0 mi WNW 6.9 mph - 0.00 in   Overcast
6:55 PM 45.0 °F 43.5 °F 42.1 °F 90% 29.92 in 10.0 mi Variable 3.5 mph 20.7 mph N/A   Partly Cloudy
7:21 PM 44.6 °F 42.2 °F 42.8 °F 93% 29.91 in 10.0 mi East 4.6 mph - N/A   Mostly Cloudy
7:41 PM 44.6 °F 40.7 °F 42.8 °F 93% 29.91 in 10.0 mi SSE 6.9 mph - N/A   Mostly Cloudy
7:55 PM 44.1 °F 40.1 °F 42.1 °F 93% 29.95 in 10.0 mi SSE 6.9 mph - N/A   Scattered Clouds
8:55 PM 45.0 °F 41.2 °F 42.1 °F 90% 29.95 in 10.0 mi South 6.9 mph - N/A   Overcast
9:55 PM 44.1 °F 41.5 °F 42.1 °F 93% 29.97 in 10.0 mi WSW 4.6 mph - 0.00 in Rain Light Rain
10:55 PM 44.1 °F - 42.1 °F 93% 29.98 in 10.0 mi Calm Calm - 0.00 in Rain Light Rain
11:55 PM 43.0 °F - 41.0 °F 93% 30.00 in 10.0 mi Calm Calm - 0.00 in Rain Light Rain